Location: Ammerl�gen
(47.2167°N, 9.6000°E)
Time: 10:55:17
(UTC+00:00)

Cosmos 1766 Rocket - Pass Details

Date: 21 April 2021
Orbit: 604 x 634 km, 82.5° (Epoch: 06 May)

Event Time Altitude Azimuth Distance (km) Brightness Sun altitude
Rises 20:11:12 0° 355° (N) 2,872 7.7 -17.2°
Reaches altitude 10° 20:13:29 10° 1° (N) 1,964 6.7 -17.5°
Maximum altitude 20:17:42 50° 77° (ENE) 778 3.8 -18.0°
Enters shadow 20:18:49 39° 122° (ESE) 911 3.9 -18.2°
